Home   Weather   Sousse   Past weeks
Flag for Tunisia

Past Weather in Sousse, Tunisia — Yesterday and Last 2 Weeks

Now
64 °F

Mild.


Feels Like: 64 °F
Forecast: 74 / 59 °F
Wind: 12 mph from East

Location: Habib Bourguiba

Current Time: May 19, 2019 at 8:15:18 pm

Latest Report: May 19, 2019 at 7:30 pm


Visibility: 5 mi

Pressure: 29.86 "Hg

Humidity: 78%

Dew Point: 57 °F

Location of SousseLocation

Past Weather in Sousse — Graph

°F

Sousse Temperature Yesterday

Maximum temperature yesterday: 72 °F (at 1:30 pm)
Minimum temperature yesterday: 63 °F (at 12:30 am)
Average temperature yesterday: 66 °F

High & Low Weather Summary for the Past Weeks

 TemperatureHumidityPressure
High90 °F (May 11, 12:30 pm)94% (May 12, 4:00 am)30.18 "Hg (May 12, 4:00 am)
Low54 °F (May 17, 5:00 am)24% (May 11, 12:30 pm)29.62 "Hg (May 17, 6:00 pm)
Average66 °F62%29.92 "Hg
* Reported May 4 7:00 pm — May 19 7:00 pm, Sousse. Weather by CustomWeather, © 2019

Note: Actual official high and low records may vary slightly from our data, if they occured in-between our weather recording intervals... More about our weather records

Advertising

Sousse Weather History for the Previous 24 Hours

Scroll right to see more
 ConditionsComfort  
Time TempWeatherWind HumidityBarometerVisibility
7:00 pm
Sun, May 19
64 °FScattered clouds.14 mph73%29.83 "Hg5 mi
6:30 pm64 °FScattered clouds.12 mph73%29.83 "Hg5 mi
6:00 pm64 °FScattered clouds.13 mph78%29.86 "Hg4 mi
5:30 pm64 °FScattered clouds.12 mph78%29.86 "Hg4 mi
5:00 pm64 °FScattered clouds.13 mph78%29.86 "Hg4 mi
4:30 pm68 °FScattered clouds.16 mph60%29.83 "HgN/A
4:00 pm70 °FScattered clouds.18 mph53%29.83 "HgN/A
3:30 pm72 °FScattered clouds.17 mph47%29.83 "HgN/A
3:00 pm72 °FScattered clouds.15 mph41%29.83 "HgN/A
2:30 pm73 °FScattered clouds.15 mph38%29.83 "HgN/A
2:00 pm73 °FScattered clouds.12 mph33%29.83 "HgN/A
1:30 pm75 °FScattered clouds.12 mph34%29.80 "HgN/A
1:00 pm75 °FSunny.13 mph31%29.80 "Hg10 mi
12:30 pm73 °FScattered clouds.9 mph29%29.80 "HgN/A
12:00 pm73 °FScattered clouds.8 mph41%29.83 "HgN/A
11:30 am72 °FScattered clouds.7 mph41%29.83 "HgN/A
11:00 am70 °FScattered clouds.5 mph46%29.83 "HgN/A
10:30 am68 °FScattered clouds.9 mph49%29.83 "HgN/A
10:00 am70 °FScattered clouds.8 mph53%29.83 "HgN/A
9:30 am68 °FScattered clouds.7 mph56%29.83 "HgN/A
9:00 am68 °FScattered clouds.6 mph56%29.83 "HgN/A
8:30 am68 °FPassing clouds.6 mph56%29.83 "HgN/A
8:00 am66 °FPassing clouds.9 mph60%29.83 "HgN/A
7:30 am66 °FPassing clouds.7 mph60%29.83 "HgN/A
7:00 am64 °FSunny.10 mph68%29.80 "Hg10 mi
6:30 am64 °FSunny.6 mph64%29.80 "Hg10 mi
6:00 am63 °FPassing clouds.5 mph68%N/AN/A
5:30 am63 °FSunny.6 mph68%29.80 "Hg10 mi
5:00 am63 °FClear.6 mph68%29.80 "Hg10 mi
4:30 am61 °FPassing clouds.6 mph77%29.80 "HgN/A
4:00 am63 °FClear.No wind77%29.77 "Hg10 mi
3:30 am63 °FClear.2 mph77%29.80 "Hg10 mi
3:00 am63 °FPassing clouds.5 mph73%29.77 "HgN/A
2:30 am63 °FClear.No wind77%29.80 "Hg10 mi
2:00 am63 °FClear.2 mph77%29.80 "Hg10 mi
1:30 am63 °FClear.3 mph77%29.80 "Hg10 mi
1:00 am63 °FClear.3 mph77%29.83 "Hg10 mi
12:00 am63 °FClear.5 mph83%29.83 "Hg10 mi
11:30 pm
Sat, May 18
63 °FClear.7 mph83%29.83 "Hg10 mi
11:00 pm63 °FClear.10 mph83%29.83 "Hg10 mi
10:30 pm64 °FClear.14 mph78%29.83 "Hg10 mi
10:00 pm64 °FPassing clouds.15 mph73%29.80 "HgN/A
9:30 pm64 °FPassing clouds.15 mph78%29.80 "HgN/A
9:00 pm64 °FPassing clouds.17 mph78%29.80 "HgN/A
8:30 pm64 °FPassing clouds.17 mph78%29.80 "HgN/A
8:00 pm64 °FPassing clouds.17 mph73%29.77 "HgN/A
Weather by CustomWeather, © 2019

See weather overview